Wind_Speed
16 15 15 15 14 13 12 12 12 11 11 10 10 10 11 12 13 14 14 14 13 13 12 13 13 13 13 13 13 13 14 15 16 17 17 17 18 19 20 20 21 20 20
16 16 16 15 14 14 13 13 12 11 11 12 11 10 11 12 13 14 15 14 13 13 14 14 14 14 13 13 14 15 15 15 16 17 18 18 18 19 20 21 22 21 21
17 16 15 14 14 14 13 13 13 13 13 13 12 12 12 13 15 15 15 14 14 14 14 14 15 15 15 14 15 16 16 16 16 17 17 17 18 19 19 21 22 22 22
16 15 14 13 13 13 13 13 13 13 14 14 13 13 13 14 15 15 15 14 14 14 15 14 15 15 15 15 16 17 17 18 18 18 18 18 18 18 18 19 20 22 22
15 15 15 14 14 13 13 13 13 12 13 13 13 13 14 15 15 15 14 15 14 15 14 15 15 15 16 16 17 18 18 19 19 19 18 18 18 17 17 18 19 20 20
16 16 15 15 14 14 13 12 13 13 13 12 12 13 14 15 15 15 15 15 15 15 15 15 15 16 16 17 17 18 18 19 19 18 18 17 17 17 18 18 18 19 19
18 17 17 16 15 15 13 13 13 12 13 13 13 14 14 15 15 15 15 15 15 15 16 16 16 16 17 17 18 18 18 18 18 18 18 18 18 18 19 18 19 19 20
18 18 18 17 16 15 14 13 14 14 14 13 13 13 14 14 14 15 15 15 15 15 15 16 16 17 17 17 18 18 18 18 18 19 19 19 19 19 19 19 19 20 20
18 19 19 18 17 15 15 15 15 14 15 14 13 13 14 15 15 15 15 15 15 15 15 16 16 17 18 18 18 18 19 19 19 19 19 19 19 20 20 20 21 21 21
19 19 19 18 18 17 16 16 16 15 15 15 15 14 14 15 15 15 15 16 15 15 15 16 16 17 18 19 19 19 19 19 19 18 18 18 19 20 20 21 21 22 23
20 19 19 19 18 17 16 16 16 16 16 15 15 15 14 15 15 15 16 16 15 15 15 16 17 18 19 20 20 19 18 18 18 18 18 18 18 19 19 20 21 21 22
21 20 19 19 19 19 18 17 17 17 17 16 16 15 15 16 16 16 16 16 16 16 16 17 18 19 19 20 19 18 18 18 17 18 18 18 18 18 19 20 21 21 21
21 20 19 19 20 20 18 18 18 18 18 18 17 17 17 17 17 17 17 17 17 17 18 18 19 18 19 19 19 18 18 17 17 17 18 18 19 19 20 20 21 21 21
20 21 21 21 21 20 19 19 19 19 19 19 19 18 18 18 18 18 18 18 17 18 19 19 19 19 19 19 19 19 19 18 18 18 18 18 18 18 19 19 19 19 19
21 21 21 22 21 21 21 20 21 20 20 20 20 19 19 19 19 19 19 19 19 19 19 19 19 20 19 19 19 19 19 18 17 17 17 18 17 17 18 18 18 19 18
21 21 22 22 22 21 21 21 21 21 20 20 20 20 21 21 21 21 21 20 19 19 20 20 20 20 20 19 19 20 19 18 17 17 17 17 16 17 18 18 18 18 17
23 21 21 21 22 22 21 20 21 21 20 20 21 21 21 21 21 20 20 20 20 20 20 20 20 20 20 20 20 19 18 18 18 18 18 16 16 16 17 18 18 17 17
22 22 21 21 22 22 22 21 21 22 21 21 21 21 21 21 21 21 21 21 21 21 21 21 21 20 20 20 20 19 18 18 18 18 18 17 17 17 18 18 18 17 17
21 21 21 21 21 22 23 23 23 22 22 21 21 21 21 21 21 22 22 22 22 22 22 21 21 20 20 20 20 19 19 19 19 18 18 18 17 17 18 18 18 18 18
22 21 20 20 21 22 23 23 23 23 23 23 22 21 22 22 22 22 23 23 23 22 22 22 21 21 20 20 19 19 19 19 19 18 18 18 18 17 17 18 18 17 18
22 22 21 21 22 22 22 23 24 24 23 23 22 22 22 22 22 22 23 23 22 22 22 23 22 21 20 19 19 20 20 19 18 18 18 18 18 18 18 17 17 17 18
23 23 23 22 22 23 24 24 24 24 24 23 23 22 21 21 22 22 22 22 22 22 22 21 21 20 20 20 19 19 19 18 18 18 18 18 19 19 18 17 17 17 17
23 23 23 24 24 23 24 25 25 24 23 24 23 23 22 22 22 21 22 22 22 21 21 21 21 20 20 19 19 19 19 19 19 18 18 18 18 18 18 17 17 17 17
25 25 24 24 24 23 24 25 25 24 24 24 23 22 22 22 22 22 22 22 22 22 21 21 21 20 20 20 20 19 19 20 19 19 19 20 19 19 19 18 18 18 18
25 24 24 24 23 23 23 22 22 22 22 23 22 22 22 22 23 23 23 22 22 23 22 21 20 21 21 21 21 20 21 21 21 20 19 19 19 20 19 19 19 18 18
24 23 23 23 23 23 24 23 22 22 22 22 21 21 22 23 23 24 24 23 23 23 23 23 22 22 22 21 21 21 20 20 20 20 20 20 20 20 19 19 20 20 19
Wind_Direction
271 274 276 277 278 280 280 283 284 285 288 288 291 288 284 285 292 294 295 295 293 293 299 301 297 292 286 284 282 280 280 278 273 268 266 263 261 259 258 259 261 259 259
270 275 277 275 277 278 276 277 279 283 285 284 284 287 288 291 296 296 294 293 295 293 289 294 295 291 284 283 282 281 280 278 276 273 268 266 263 260 257 257 257 260 259
268 274 277 275 275 274 272 275 276 278 282 281 283 286 289 293 294 291 292 292 292 291 290 292 293 290 284 281 281 282 280 277 277 277 273 270 267 263 260 259 258 258 261
266 269 273 273 272 272 270 273 275 279 281 280 280 283 286 290 291 290 291 294 296 294 290 287 288 288 284 281 283 283 282 279 276 274 274 273 273 269 265 262 263 260 261
266 268 272 274 272 272 271 273 278 280 280 279 277 283 285 285 287 290 292 290 291 293 289 288 285 285 282 281 283 283 282 280 278 275 274 273 273 270 270 267 264 264 264
261 265 269 271 271 272 273 275 280 280 282 285 282 284 284 283 283 285 289 288 287 288 288 287 284 286 285 282 287 287 285 282 280 276 274 272 270 269 268 267 266 267 266
257 261 265 268 269 270 273 276 279 281 284 287 287 286 283 284 286 286 287 288 289 290 288 287 287 287 286 284 289 291 287 282 277 274 272 271 269 269 268 267 266 265 267
256 260 262 264 267 268 272 276 279 283 286 290 290 289 290 290 291 290 290 292 291 288 286 288 288 288 288 288 289 289 286 282 277 275 272 270 268 268 267 267 266 264 265
256 260 262 264 265 266 271 274 278 281 285 289 291 291 290 291 292 292 294 295 293 291 290 290 291 291 290 290 290 288 286 283 281 277 272 270 267 266 267 267 268 266 266
259 260 261 260 262 266 270 272 276 279 283 283 285 290 291 293 291 293 295 297 297 294 296 294 293 294 293 290 290 288 284 282 280 277 272 270 269 268 268 269 270 270 269
261 260 258 258 262 265 269 272 272 275 279 281 284 287 291 295 296 294 295 295 296 298 297 298 297 295 294 291 289 286 285 282 280 277 272 269 269 272 272 274 273 273 272
262 261 258 259 262 265 267 270 272 274 275 276 279 283 289 292 294 295 296 297 297 296 297 297 298 297 293 290 288 285 283 282 281 278 273 270 272 275 276 275 275 275 275
264 261 261 261 263 266 268 268 269 273 275 275 276 280 287 289 290 292 293 296 295 295 297 299 299 297 293 290 288 288 286 284 281 278 275 274 274 277 278 277 276 276 275
261 263 264 263 264 265 268 270 271 273 274 274 275 280 285 288 287 288 293 295 296 296 297 297 297 296 292 288 285 286 285 283 281 280 279 278 277 279 279 279 278 277 277
262 264 264 262 264 263 265 268 270 271 272 273 275 280 283 285 286 288 291 291 293 296 297 296 296 296 294 289 285 284 284 282 281 281 280 279 279 279 279 278 280 279 277
266 265 266 264 263 261 261 264 267 269 271 273 275 280 282 283 284 286 286 287 291 294 297 296 296 295 292 290 287 284 282 279 277 278 279 277 277 277 278 278 280 279 277
268 268 269 266 263 260 261 263 266 266 268 272 275 278 280 282 283 283 285 287 289 293 297 297 296 293 290 288 285 285 281 278 279 279 279 276 274 275 278 278 278 277 277
270 269 268 265 262 259 259 262 265 265 268 271 274 278 278 280 281 282 284 286 288 291 294 295 295 294 290 286 283 282 279 278 279 279 279 277 275 274 278 276 276 276 276
267 268 265 262 260 259 259 262 264 266 268 271 274 277 278 278 280 279 282 283 286 289 291 293 293 292 289 285 282 280 278 277 277 281 281 278 276 277 278 275 273 273 274
266 266 263 262 261 259 259 262 264 265 268 271 272 274 277 281 282 280 280 282 284 286 288 290 291 290 287 286 283 279 276 276 275 278 279 279 275 277 279 276 273 274 276
264 263 263 263 261 259 260 261 264 264 266 268 269 270 273 278 281 282 282 283 285 286 288 289 289 290 289 287 284 281 279 278 277 277 277 277 275 277 280 277 272 273 274
262 262 262 263 262 261 261 261 262 265 265 267 268 270 273 276 277 279 282 283 284 285 286 287 286 285 285 284 283 282 280 279 279 277 275 276 276 276 277 275 272 273 275
261 260 260 260 262 263 263 261 262 264 264 267 268 270 272 275 275 277 280 283 283 283 283 283 283 281 283 283 281 279 275 274 275 274 275 276 276 275 275 273 271 273 276
262 262 261 263 264 265 264 261 261 263 265 265 267 269 271 273 275 278 280 281 282 282 280 279 278 278 280 281 280 277 275 273 274 274 275 275 275 276 275 273 272 273 275
263 265 266 266 266 266 265 264 262 263 265 266 268 270 273 275 277 278 279 280 281 280 280 280 279 276 276 279 278 277 274 272 272 272 273 272 272 274 275 274 274 274 274
262 265 267 266 265 264 263 263 262 263 267 269 269 271 273 276 278 280 280 281 281 279 279 277 276 276 276 278 278 276 274 272 271 269 268 270 271 271 271 272 273 274 273
Height
5848 5848 5848 5847 5847 5846 5845 5845 5845 5845 5844 5843 5842 5841 5840 5840 5839 5838 5837 5836 5835 5834 5833 5832 5831 5830 5830 5829 5829 5829 5829 5828 5828 5829 5829 5830 5830 5831 5832 5833 5833 5834 5835
5845 5845 5844 5844 5843 5842 5842 5842 5842 5841 5841 5840 5839 5838 5838 5837 5836 5835 5833 5832 5831 5830 5829 5829 5828 5827 5826 5825 5825 5825 5825 5824 5824 5824 5824 5825 5826 5826 5827 5828 5828 5829 5830
5841 5841 5840 5840 5839 5839 5838 5838 5838 5838 5838 5837 5836 5835 5835 5834 5833 5831 5830 5829 5828 5827 5826 5825 5824 5823 5822 5822 5821 5821 5820 5820 5819 5819 5820 5820 5820 5821 5822 5822 5823 5824 5824
5837 5837 5837 5836 5836 5835 5835 5835 5835 5835 5834 5833 5833 5832 5832 5831 5829 5828 5826 5825 5824 5823 5822 5821 5820 5819 5818 5818 5817 5816 5816 5815 5814 5814 5814 5815 5815 5815 5816 5817 5817 5818 5818
5833 5833 5833 5833 5832 5832 5831 5831 5831 5831 5830 5830 5829 5828 5828 5827 5826 5824 5823 5822 5820 5819 5818 5817 5816 5815 5814 5813 5812 5812 5811 5810 5809 5809 5809 5809 5809 5810 5811 5811 5812 5812 5813
5829 5829 5829 5829 5829 5828 5828 5828 5827 5827 5827 5826 5826 5825 5824 5823 5822 5820 5819 5818 5816 5815 5814 5812 5811 5810 5809 5809 5808 5806 5805 5805 5804 5804 5804 5804 5805 5805 5805 5806 5806 5807 5807
5825 5825 5826 5826 5826 5825 5825 5824 5824 5823 5823 5823 5822 5821 5820 5819 5818 5816 5815 5814 5812 5811 5810 5808 5807 5806 5805 5804 5803 5801 5801 5800 5799 5799 5799 5799 5800 5800 5800 5801 5801 5801 5802
5820 5821 5821 5822 5822 5821 5821 5820 5820 5820 5819 5819 5818 5817 5816 5815 5814 5812 5811 5809 5808 5806 5805 5804 5803 5801 5800 5799 5797 5796 5795 5794 5794 5794 5794 5794 5795 5795 5795 5796 5796 5796 5796
5815 5816 5817 5817 5817 5817 5817 5817 5816 5816 5815 5815 5814 5813 5812 5811 5810 5808 5807 5805 5803 5802 5801 5799 5798 5796 5795 5794 5792 5791 5790 5789 5789 5788 5788 5789 5789 5789 5789 5790 5790 5790 5790
5811 5811 5812 5812 5813 5813 5812 5812 5812 5812 5811 5811 5810 5809 5808 5807 5806 5804 5803 5801 5799 5798 5797 5795 5794 5792 5791 5789 5787 5786 5785 5784 5783 5783 5783 5783 5783 5783 5783 5783 5783 5783 5784
5806 5806 5807 5808 5808 5808 5808 5808 5808 5807 5807 5807 5806 5806 5805 5804 5802 5800 5799 5798 5796 5794 5793 5791 5789 5787 5786 5784 5782 5780 5779 5778 5778 5777 5777 5778 5778 5778 5777 5777 5777 5777 5777
5800 5801 5801 5802 5803 5803 5803 5803 5803 5803 5803 5802 5802 5801 5801 5799 5798 5796 5795 5793 5792 5790 5789 5787 5784 5782 5780 5778 5776 5775 5774 5773 5773 5772 5772 5772 5772 5772 5772 5772 5771 5771 5771
5794 5795 5795 5796 5797 5797 5797 5797 5797 5798 5798 5797 5797 5797 5796 5795 5794 5792 5791 5789 5788 5786 5784 5782 5780 5777 5775 5773 5771 5770 5769 5768 5768 5767 5767 5767 5767 5767 5766 5766 5766 5765 5765
5789 5790 5790 5790 5791 5791 5791 5792 5792 5792 5792 5792 5792 5792 5791 5790 5788 5787 5786 5784 5783 5781 5779 5777 5774 5772 5770 5768 5766 5765 5764 5763 5762 5762 5761 5761 5761 5761 5761 5760 5760 5759 5759
5783 5784 5784 5784 5784 5785 5785 5786 5786 5786 5786 5787 5786 5786 5785 5784 5783 5782 5780 5779 5778 5776 5774 5771 5769 5766 5764 5763 5761 5759 5758 5757 5757 5756 5756 5755 5755 5755 5755 5755 5754 5754 5753
5777 5778 5778 5778 5778 5778 5779 5780 5780 5780 5781 5781 5781 5780 5779 5778 5777 5776 5775 5774 5772 5771 5769 5766 5764 5761 5759 5757 5755 5754 5753 5752 5752 5752 5751 5750 5750 5750 5750 5750 5749 5749 5748
5771 5771 5771 5771 5772 5772 5773 5774 5774 5774 5775 5775 5774 5774 5773 5772 5771 5770 5769 5768 5767 5765 5763 5761 5758 5756 5754 5752 5750 5749 5748 5747 5747 5747 5746 5745 5745 5745 5745 5745 5744 5744 5743
5763 5764 5764 5764 5765 5766 5767 5767 5768 5768 5768 5768 5768 5768 5767 5766 5766 5765 5764 5763 5761 5760 5758 5755 5753 5751 5748 5746 5745 5744 5743 5742 5742 5741 5741 5740 5741 5740 5740 5740 5739 5739 5738
5757 5757 5757 5758 5759 5759 5760 5761 5761 5762 5762 5762 5762 5762 5761 5760 5760 5759 5758 5757 5755 5754 5752 5750 5747 5745 5743 5741 5740 5739 5738 5737 5737 5736 5736 5736 5735 5735 5734 5734 5734 5733 5733
5751 5751 5752 5752 5752 5753 5754 5754 5755 5755 5756 5755 5755 5755 5755 5754 5754 5753 5752 5750 5749 5747 5745 5744 5742 5739 5738 5736 5735 5734 5733 5732 5732 5731 5731 5731 5730 5730 5729 5729 5728 5728 5728
5745 5745 5745 5746 5746 5747 5747 5748 5748 5748 5749 5748 5748 5748 5748 5748 5747 5746 5745 5744 5743 5741 5739 5738 5736 5734 5732 5731 5730 5729 5728 5727 5727 5726 5726 5726 5725 5725 5724 5724 5723 5723 5723
5739 5739 5739 5739 5739 5740 5741 5741 5741 5742 5741 5742 5741 5741 5741 5741 5740 5739 5738 5737 5736 5735 5733 5731 5730 5728 5727 5726 5725 5724 5723 5722 5721 5721 5721 5721 5720 5720 5719 5719 5718 5718 5717
5733 5733 5733 5733 5733 5733 5734 5734 5734 5734 5735 5735 5735 5735 5734 5734 5733 5732 5732 5731 5729 5728 5727 5725 5724 5723 5721 5720 5719 5718 5718 5717 5716 5716 5716 5715 5715 5715 5714 5714 5713 5713 5712
5726 5726 5726 5726 5726 5726 5727 5727 5727 5727 5728 5728 5728 5728 5728 5727 5726 5725 5724 5724 5722 5721 5719 5719 5718 5716 5715 5714 5713 5712 5712 5711 5711 5710 5710 5710 5709 5709 5709 5708 5708 5707 5706
5719 5719 5718 5719 5719 5719 5719 5719 5719 5720 5721 5721 5721 5721 5721 5720 5719 5719 5717 5716 5715 5713 5712 5711 5710 5710 5709 5708 5707 5706 5706 5705 5705 5704 5704 5704 5703 5703 5703 5702 5702 5702 5701
5711 5711 5711 5712 5712 5712 5712 5712 5712 5713 5714 5714 5715 5714 5714 5713 5713 5712 5710 5709 5707 5706 5705 5704 5703 5702 5702 5701 5700 5699 5699 5698 5698 5698 5698 5698 5698 5697 5697 5696 5696 5696 5695